Location: Hermaringen
(48.5952°N, 10.2585°E)
Time: 11:02:37
(UTC+00:00)

Courier 1B - Pass Details

Date: 21 February 2026
Orbit: 962 x 1208 km, 28.3° (Epoch: 7 March)

Event Time Altitude Azimuth Distance (km) Brightness Sun altitude
Rises 19:59:27 0° 236° (WSW) 3,901 11.1 -31.6°
Reaches altitude 10° 20:03:37 10° 214° (SW) 2,996 10.1 -32.2°
Enters shadow 20:05:38 14° 199° (SSW) 2,760 9.8 -32.5°
Maximum altitude 20:07:22 15° 183° (S) 2,703 - -32.8°
Drops below altitude 10° 20:11:11 10° 153° (SSE) 3,077 - -33.4°
Sets 20:15:35 0° 131° (SE) 4,074 - -34.0°
